STARLINK-32698 (62312 NORAD) Tracking and Keplerian Element Data

This shows tracking and keplerian element data for the satellite.

Feedback or suggestion? Click here.




ElementValue
Catalog62312
NameSTARLINK-32698
Epoch Orbit828
Epoch Day34.9894626
Epoch Year2025
RAAN249.9269
Inclination53.1577
Eccentricity0.0001052
Argument of Perigee55.4452
Mean Anonmoly304.6652
Mean Motion15.39623324
Decay Rate-2.197E-05
L11 62312U 24239M 25034.98946260 -.00002197 00000+0 -44951-4 0 9999
L22 62312 53.1577 249.9269 0001052 55.4452 304.6652 15.39623324 8280



Live tracking and technical data element details for STARLINK-32698 (NORAD 62312). STARLINK-32698 can be tracked NOW for your location showing map with azimuth and elevation plus other details from your city location.







IsCatalogInMostPopularTable: catalog: 62312, numindb: 15
Update: records affected: 1



GetName: 62312 STARLINK-32698

Hit Count: updated at: Sun, 18 May 2025 21:50:04 GMT